, CO

(GMT )
Mount Werner

Weather History for K3MW - December, 2012

Change the Weather History Date:

Friday, December 14, 2012

  Actual Average Record
Temperature  
Mean Temperature 29 °F -  
Max Temperature 32 °F - - ()
Min Temperature 26 °F - - ()
Degree Days  
Heating Degree Days 36    
Moisture  
Dew Point 10 °F    
Average Humidity 48    
Maximum Humidity 86    
Minimum Humidity 25    
Precipitation  
Precipitation 0.00 in - - ()
Sea Level Pressure  
Sea Level Pressure 29.57 in    
Wind  
Wind Speed 13 mph (SSE)    
Max Wind Speed 30 mph    
Max Gust Speed 34 mph    
Visibility 6 miles    
Events Snow    
T = Trace of Precipitation, MM = Missing Value Source: NWS Daily Summary

Daily Weather History Graph

Daily Weather History Graph

Search for Another Location

Airport or City:

Trip Planner

Search our weather history database for the weather conditions in past years. The results will help you decide how hot, cold, wet, or windy it might be!

Date:

Astronomy

Dec. 14, 2012 Rise Set
Actual Time 7:22 AM MST 4:41 PM MST
Civil Twilight 6:51 AM MST 5:11 PM MST
Nautical Twilight 6:17 AM MST 5:46 PM MST
Astronomical Twilight 5:44 AM MST 6:19 PM MST
Moon 8:29 AM MST (12/14) 6:37 PM MST (12/14)
Length of Visible Light 10h 19m
Length of Day
9h 18m
Waxing Crescent, 3% of the Moon is Illuminated
Dec 14
Waxing Crescent
Dec 19
First Quarter
Dec 28
Full
Jan 4
Last Quarter
Jan 11
New

Hourly Weather History & Observations

Time (MST) Temp. Windchill Dew Point Humidity Pressure Visibility Wind Dir Wind Speed Gust Speed Precip Events Conditions
12:14 AM 30.2 °F 20.2 °F 5.0 °F 34% 29.80 in 10.0 mi SSW 12.7 mph 18.4 mph N/A   Clear
12:34 AM 30.2 °F 20.8 °F 5.0 °F 34% 29.79 in 10.0 mi SSW 11.5 mph - N/A   Clear
12:54 AM 30.2 °F 22.6 °F 5.0 °F 34% 29.78 in 10.0 mi South 8.1 mph - N/A   Clear
1:14 AM 30.2 °F 23.4 °F 5.0 °F 34% 29.76 in 10.0 mi SSW 6.9 mph - N/A   Clear
1:34 AM 30.2 °F 21.9 °F 5.0 °F 34% 29.76 in 10.0 mi South 9.2 mph - N/A   Clear
1:54 AM 30.2 °F 24.3 °F 3.2 °F 32% 29.76 in 10.0 mi South 5.8 mph - N/A   Clear
2:14 AM 30.2 °F 22.6 °F 3.2 °F 32% 29.76 in 10.0 mi South 8.1 mph - N/A   Clear
2:34 AM 30.2 °F 21.9 °F 3.2 °F 32% 29.74 in 10.0 mi SE 9.2 mph - N/A   Clear
2:54 AM 30.2 °F 21.9 °F 3.2 °F 32% 29.74 in 10.0 mi SSE 9.2 mph - N/A   Clear
3:14 AM 28.4 °F 19.1 °F 3.2 °F 34% 29.74 in 10.0 mi SE 10.4 mph - N/A   Clear
3:34 AM 28.4 °F 18.0 °F 5.0 °F 37% 29.72 in 10.0 mi SE 12.7 mph - N/A   Scattered Clouds
3:54 AM 28.4 °F 18.0 °F 3.2 °F 34% 29.71 in 10.0 mi SE 12.7 mph - N/A   Scattered Clouds
4:14 AM 28.4 °F 17.5 °F 3.2 °F 34% 29.71 in 10.0 mi SE 13.8 mph - N/A   Clear
4:34 AM 28.4 °F 17.0 °F 3.2 °F 34% 29.70 in 10.0 mi ESE 15.0 mph - N/A   Clear
4:54 AM 28.4 °F 16.2 °F 3.2 °F 34% 29.69 in 10.0 mi ESE 17.3 mph - N/A   Mostly Cloudy
5:14 AM 28.4 °F 16.2 °F 3.2 °F 34% 29.69 in 10.0 mi ESE 17.3 mph - N/A   Overcast
5:34 AM 28.4 °F 17.0 °F 3.2 °F 34% 29.68 in 10.0 mi ESE 15.0 mph - N/A   Overcast
5:54 AM 28.4 °F 17.0 °F 1.4 °F 31% 29.66 in 10.0 mi ESE 15.0 mph - N/A   Scattered Clouds
6:14 AM 30.2 °F 19.3 °F 1.4 °F 29% 29.66 in 10.0 mi ESE 15.0 mph - N/A   Clear
6:34 AM 30.2 °F 19.3 °F 1.4 °F 29% 29.65 in 10.0 mi ESE 15.0 mph - N/A   Mostly Cloudy
6:54 AM 30.2 °F 18.9 °F 1.4 °F 29% 29.63 in 10.0 mi East 16.1 mph - N/A   Overcast
7:14 AM 28.4 °F 16.2 °F 3.2 °F 34% 29.63 in 10.0 mi East 17.3 mph 23.0 mph N/A   Overcast
7:34 AM 28.4 °F 15.1 °F 3.2 °F 34% 29.61 in 10.0 mi East 20.7 mph - N/A   Overcast
7:54 AM 28.4 °F 15.8 °F 3.2 °F 34% 29.61 in 10.0 mi East 18.4 mph - N/A   Overcast
8:14 AM 28.4 °F 15.1 °F 3.2 °F 34% 29.60 in 10.0 mi East 20.7 mph 25.3 mph N/A   Overcast
8:34 AM 28.4 °F 15.1 °F 3.2 °F 34% 29.59 in 10.0 mi East 20.7 mph 25.3 mph N/A   Overcast
8:54 AM 30.2 °F 17.4 °F 3.2 °F 32% 29.59 in 10.0 mi East 20.7 mph 27.6 mph N/A   Overcast
9:14 AM 30.2 °F 16.8 °F 1.4 °F 29% 29.57 in 10.0 mi East 23.0 mph 28.8 mph N/A   Overcast
9:34 AM 32.0 °F 18.6 °F -0.4 °F 25% 29.56 in 10.0 mi East 25.3 mph 31.1 mph N/A   Overcast
9:54 AM 30.2 °F 16.2 °F 1.4 °F 29% 29.55 in 10.0 mi East 25.3 mph 31.1 mph N/A   Overcast
10:14 AM 32.0 °F 19.2 °F 1.4 °F 27% 29.55 in 10.0 mi East 23.0 mph 26.5 mph N/A   Overcast
10:34 AM 32.0 °F 19.2 °F 3.2 °F 30% 29.53 in 10.0 mi East 23.0 mph 29.9 mph N/A   Overcast
10:54 AM 30.2 °F 17.1 °F 5.0 °F 34% 29.52 in 10.0 mi East 21.9 mph 29.9 mph N/A   Overcast
11:14 AM 30.2 °F 15.9 °F 5.0 °F 34% 29.49 in 10.0 mi East 26.5 mph 33.4 mph N/A   Overcast
11:34 AM 28.4 °F 14.4 °F 12.2 °F 51% 29.48 in 10.0 mi East 23.0 mph 34.5 mph N/A   Overcast
11:54 AM 26.6 °F 10.3 °F 15.8 °F 64% 29.45 in 10.0 mi East 29.9 mph 34.5 mph N/A   Overcast
12:14 PM 28.4 °F 13.8 °F 19.4 °F 69% 29.44 in 10.0 mi East 25.3 mph 34.5 mph N/A   Overcast
12:34 PM 28.4 °F 13.8 °F 19.4 °F 69% 29.43 in 5.0 mi East 25.3 mph 33.4 mph N/A Snow Light Snow
12:54 PM 28.4 °F 14.7 °F 19.4 °F 69% 29.42 in 10.0 mi East 21.9 mph 33.4 mph N/A   Overcast
1:14 PM 28.4 °F 16.2 °F 19.4 °F 69% 29.41 in 10.0 mi East 17.3 mph 28.8 mph N/A   Overcast
1:34 PM 28.4 °F 14.7 °F 17.6 °F 64% 29.41 in 10.0 mi East 21.9 mph 28.8 mph N/A   Overcast
1:54 PM 28.4 °F 18.0 °F 19.4 °F 69% 29.41 in 10.0 mi East 12.7 mph 20.7 mph N/A   Overcast
2:14 PM 28.4 °F 21.2 °F 19.4 °F 69% 29.42 in 2.5 mi East 6.9 mph - N/A Snow Light Snow
2:34 PM 28.4 °F 24.6 °F 21.2 °F 74% 29.42 in 0.8 mi East 3.5 mph - N/A Snow Light Snow
2:54 PM 28.4 °F - 23.0 °F 80% 29.42 in 0.8 mi Calm Calm - N/A Snow Light Snow
3:14 PM 28.4 °F - 23.0 °F 80% 29.43 in 0.5 mi Calm Calm - N/A Snow Light Snow
3:34 PM 26.6 °F 22.6 °F 23.0 °F 86% 29.43 in 0.2 mi West 3.5 mph - N/A Snow Snow
3:54 PM 26.6 °F 22.6 °F 23.0 °F 86% 29.44 in 0.2 mi WNW 3.5 mph - N/A Snow Snow
4:14 PM 26.6 °F 20.0 °F 23.0 °F 86% 29.45 in 0.2 mi SW 5.8 mph - N/A Snow Snow
4:34 PM 26.6 °F 18.2 °F 21.2 °F 80% 29.45 in 0.2 mi WSW 8.1 mph - N/A Snow Snow
4:54 PM 26.6 °F 19.1 °F 23.0 °F 86% 29.45 in 0.2 mi WNW 6.9 mph - N/A Snow Heavy Snow
5:14 PM 26.6 °F 18.2 °F 23.0 °F 86% 29.45 in 0.2 mi WNW 8.1 mph - N/A Snow Heavy Snow
5:34 PM 26.6 °F 20.0 °F 21.2 °F 80% 29.46 in 0.5 mi West 5.8 mph - N/A Snow Snow
5:54 PM 26.6 °F 19.1 °F 21.2 °F 80% 29.47 in 0.8 mi NW 6.9 mph - N/A Snow Light Snow
6:14 PM - - - N/A% 29.48 in 0.8 mi WNW 6.9 mph - N/A   Unknown
6:54 PM - - - N/A% 29.48 in 0.5 mi West 4.6 mph - N/A   Unknown
7:14 PM - - - N/A% 29.50 in 0.2 mi SSW 4.6 mph - N/A   Unknown
7:34 PM - - - N/A% 29.50 in 0.2 mi SSW 6.9 mph - N/A   Unknown
7:54 PM - - - N/A% 29.51 in 0.2 mi WSW 5.8 mph - N/A   Unknown
8:14 PM - - - N/A% 29.52 in 0.2 mi WSW 8.1 mph - N/A   Unknown
8:34 PM - - - N/A% 29.52 in 0.2 mi WSW 10.4 mph - N/A   Unknown
8:54 PM - - - N/A% 29.52 in 0.2 mi West 8.1 mph - N/A   Unknown
9:14 PM - - - N/A% 29.53 in 0.2 mi West 10.4 mph - N/A   Unknown
9:34 PM - - - N/A% 29.54 in 0.2 mi West 11.5 mph 16.1 mph N/A   Unknown
9:54 PM - - - N/A% 29.54 in 0.2 mi West 12.7 mph - N/A   Unknown
10:14 PM - - - N/A% 29.55 in 0.2 mi West 13.8 mph 18.4 mph N/A   Unknown
10:34 PM - - - N/A% 29.56 in 0.2 mi West 12.7 mph 21.9 mph N/A   Unknown
10:54 PM - - - N/A% 29.56 in 0.2 mi West 13.8 mph 23.0 mph N/A   Unknown
11:14 PM - - - N/A% 29.57 in 0.2 mi WSW 16.1 mph 21.9 mph N/A   Unknown
11:34 PM - - - N/A% 29.57 in 0.2 mi WSW 18.4 mph 26.5 mph N/A   Unknown
11:54 PM - - - N/A% 29.58 in 0.2 mi WSW 16.1 mph 25.3 mph N/A   Unknown